Regional Weather Roundup
Issued by NWS Jackson, KY

Home | Current Version | Previous Version | Graphics & Text | Print | Product List | Glossary On
Versions: 1 2 3 4 5 6 7 8 9 10 11 12 13 14 15 16 17 18 19 20 21 22 23 24 25 26 27
000
ASUS43 KJKL 172010
RWRJKL

EAST KENTUCKY HOURLY WEATHER ROUNDUP
NATIONAL WEATHER SERVICE JACKSON KY
400 PM EDT TUE OCT 17 2017

NOTE: "FAIR" INDICATES FEW OR NO CLOUDS BELOW 12,000 FEET WITH
NO SIGNIFICANT WEATHER AND/OR OBSTRUCTIONS TO VISIBILITY.

* THESE REPORTS ARE NOT UNDER NWS QUALITY CONTROL AND MAY NOT
  REPORT WEATHER SUCH AS PRECIPITATION AND FOG.

KYZ079-080-083-085-087-088-110-112-115-119-120-172100
...EASTERN KENTUCKY...

CITY           SKY/WX    TMP DP  RH WIND       PRES   REMARKS
JACKSON        SUNNY     64  38  38 CALM      30.29F
LONDON         SUNNY     63  36  36 VRB5      30.29F
SOMERSET*      SUNNY     63  36  36 CALM      30.30F
MONTICELLO*    SUNNY     65  41  41 VRB7      30.31F
WILLIAMSBURG*  CLEAR     64  37  36 SE3       30.29F
MIDDLESBORO*   SUNNY     64  36  35 CALM      30.29F
HARLAN APT*    CLEAR     64  36  34 CALM      30.29S
PIKE CO APT*     N/A     62  38  41 NW6       30.30F
BIG SANDY APT* CLEAR     64  40  42 E5        30.30F
MOREHEAD APT*  CLEAR     63  36  36 VRB5      30.31F
$$

KYZ035-036-041-042-044-050-067-078-099-172100
...CENTRAL KENTUCKY...

CITY           SKY/WX    TMP DP  RH WIND       PRES   REMARKS
MT STERLING*   SUNNY     63  37  39 S3        30.31F
FLEMING/MASON* SUNNY     64  40  41 CALM      30.31S
DANVILLE*      SUNNY     63  37  39 S3        30.30F
LEXINGTON      SUNNY     64  40  41 VRB3      30.29F
FRANKFORT      SUNNY     66  38  35 VRB3      30.27F
LOUISVILLE     MOSUNNY   66  40  38 SE9       30.28F
LEBANON*         N/A     64  37  36 CALM      30.29F
GLASGOW*       SUNNY     68  39  34 E5        30.28F
BOWLING GREEN  SUNNY     67  43  41 E5        30.28F
$$

KYZ091>093-OHZ055-061-077-WVZ005-015-034-035-042-172100
...SOUTHERN OHIO/WEST VIRGINIA...

CITY           SKY/WX    TMP DP  RH WIND       PRES   REMARKS
COVINGTON      MOSUNNY   65  41  41 S9        30.27F
COLUMBUS       SUNNY     66  37  34 SW10      30.26F
DAYTON         MOSUNNY   64  41  42 S10       30.27F
WILMINGTON     SUNNY     64  41  42 SW10      30.27F
HUNTINGTON     SUNNY     64  37  36 VRB5      30.29F
CHARLESTON     SUNNY     65  34  31 NE3       30.30F
PINEVILLE*     SUNNY     64  36  34 MISG      30.34F
BECKLEY        SUNNY     61  34  36 VRB7      30.30F
BLUEFIELD      SUNNY     58  30  34 CALM      30.30F
LOGAN CO APT*    N/A     63  34  34 CALM      30.29F
$$

VAZ002-007-008-TNZ017-027-036-066-071-172100
...SOUTHWEST VIRGINIA/EAST TENNESSEE...

CITY           SKY/WX    TMP DP  RH WIND       PRES   REMARKS
WISE*          SUNNY     61  36  39 NE3       30.31F
JONESVILLE*      N/A     66  37  34 CALM      30.31S
ABINGDON*      SUNNY     65  36  33 W3        30.29F
BRISTOL        SUNNY     65  34  31 CALM      30.28F
MORRISTOWN*    CLEAR     64  37  36 E3        30.28F
SEVIERVILLE*   CLEAR     64  41  42 CALM      30.27F
KNOXVILLE      SUNNY     66  42  41 VRB5      30.27F
LAFOLLETTE*    CLEAR     64  39  39 CALM      30.32F
OAK RIDGE      SUNNY     66  43  43 CALM      30.29F
CROSSVILLE     SUNNY     64  35  34 N3        30.29F
NASHVILLE      MOSUNNY   69  35  28 NE3       30.28F
$$

...KEY TO REMARKS...
VSB - VISIBILITY IN MILES
WCI - WIND CHILL INDEX
HX  - HEAT INDEX

$$




USA.gov is the U.S. government's official web portal to all federal, state and local government web resources and services.